Skip Page Navigation
NASA JPL Caltech
NASA Logo - Jet Propulsion Laboratory + View the NASA Portal
+ Center for Near-Earth Object Studies
JPL Home Earth Solar System Stars & Galaxies Technology
JPL Solar System Dynamics
BODIES ORBITS EPHEMERIDES TOOLS PHYSICAL DATA DISCOVERY FAQ SITE MAP
IMPORTANT: The SSD Announcement email list is now available. Major changes are coming in the near future, including possible hostname and/or URL changes. To be notified of such changes, subscribe to this email list.

Please visit this page for more details.


JPL Small-Body Database Browser
Search: [ help ]  
14292 (1148 T-1)
Classification: Main-belt Asteroid          SPK-ID: 2014292
Ephemeris | Orbit Diagram | Orbital Elements | Mission Design | Physical Parameters | Discovery Circumstances | Close-Approach Data ]

[ show orbit diagram ]
Orbital Elements at Epoch 2458600.5 (2019-Apr-27.0) TDB
Reference: JPL 21 (heliocentric ecliptic J2000)
 Element Value Uncertainty (1-sigma)   Units 
e .09670040863873097 3.208e-08  
a 2.19168249403606 8.6971e-09 au
q 1.97974590125642 6.9735e-08 au
i 2.303885796070791 4.8671e-06 deg
node 358.8329559116526 9.3031e-05 deg
peri 260.633920144141 9.6868e-05 deg
M 229.4359125263944 2.7198e-05 deg
tp 2459030.319507270288
(2020-Jun-29.81950727)
8.9772e-05 TDB
period 1185.126979488784
3.24
7.0543e-06
1.931e-08
d
yr
n .3037649182160122 1.8081e-09 deg/d
Q 2.4036190868157 9.5381e-09 au
  Orbit Determination Parameters
   # obs. used (total)      918  
   data-arc span      17514 days (47.95 yr)  
   first obs. used      1971-03-24  
   last obs. used      2019-03-06  
   planetary ephem.      DE431  
   SB-pert. ephem.      SB431-N16  
   condition code      0  
   norm. resid. RMS      .55743  
   source      ORB  
   producer      Otto Matic  
   solution date      2019-Jul-12 19:26:27  

Additional Information
 Earth MOID = .965729 au 
 Jupiter MOID = 2.63447 au 
 T_jup = 3.665 
[ show covariance matrix ]

Ephemeris | Orbit Diagram | Orbital Elements | Mission Design | Physical Parameters | Discovery Circumstances | Close-Approach Data ]

Physical Parameter Table
Parameter Symbol Value Units Sigma Reference Notes
absolute magnitude H 15.7   n/a MPO425948  
diameter diameter 1.823 km 0.377 urn:nasa:pds:neowise_diameters_albedos::2.0[mainbelt] (http://adsabs.harvard.edu/abs/2011ApJ...741...68M)  
geometric albedo albedo 0.335   0.222 urn:nasa:pds:neowise_diameters_albedos::2.0[mainbelt] (http://adsabs.harvard.edu/abs/2011ApJ...741...68M)  

14292 (1148 T-1)          Discovered 1971-Mar-25 by van Houten, C. J., van Houten-Groeneveld, I., Gehrels, T. at Palomar
Reference: 20000320/Numbers.arcLast Updated: 2004-04-19

[ show close-approach data ]
Alternate Designations
 1148 T-1 = 1997 EM55 
Ephemeris | Orbit Diagram | Orbital Elements | Mission Design | Physical Parameters | Discovery Circumstances | Close-Approach Data ]
ABOUT SSD CREDITS/AWARDS PRIVACY/COPYRIGHT GLOSSARY LINKS
FirstGov
(server date/time)  
NASA Home Page
Site Manager:   Ryan S. Park
Webmaster  Alan B. Chamberlin